Location: Escondido Hill
(38.9119°N, 104.7815°W)
Time: 13:13:38
(UTC-06:00)

Hubble Space Telescope - Visible Passes

Search period start: 15 October 2018 00:00
Search period end: 25 October 2018 00:00
Orbit: 537 x 541 km, 28.5° (Epoch: 14 October)

Date Brightness Start Highest point End Pass type
(mag) Time Alt. Az. Time Alt. Az. Time Alt. Az.
16 Oct 3.3 05:14:42 11° S 05:15:29 11° SSE 05:16:38 10° SSE visible
17 Oct 3.2 05:05:03 13° SSE 05:05:03 13° SSE 05:06:48 10° SE visible
17 Oct 2.9 06:42:31 10° SW 06:45:27 19° S 06:48:23 10° SE visible
18 Oct 3.3 04:55:22 14° SSE 04:55:22 14° SSE 04:56:41 10° SE visible
18 Oct 2.8 06:32:00 10° SW 06:34:57 19° S 06:37:53 10° SE visible
19 Oct 3.5 04:45:38 13° SE 04:45:38 13° SE 04:46:26 10° SE visible
19 Oct 2.8 06:21:32 10° SW 06:24:27 19° S 06:27:21 10° SE visible
20 Oct 3.7 04:35:54 11° SE 04:35:54 11° SE 04:36:06 10° SE visible
20 Oct 2.8 06:11:15 11° SW 06:13:56 18° S 06:16:45 10° SE visible
21 Oct 2.8 06:01:31 13° SW 06:03:25 17° S 06:06:07 10° SSE visible
22 Oct 2.8 05:51:47 14° SSW 05:52:54 16° S 05:55:23 10° SSE visible
23 Oct 2.9 05:42:04 14° SSW 05:42:23 14° SSW 05:44:34 10° SSE visible
24 Oct 3.1 05:32:22 12° S 05:32:22 12° S 05:33:34 10° S visible
